Flag for Germany Weather past 2 weeks in Homburg (Saar), Saarland, Germany

Now
54 °F

Fog.


Feels Like: 53 °F
Forecast: 37 / 58 °F
Wind: 5 mph from Northeast

Location: Zweibrucken - Rheinland-Pfalz

Current Time: Oct 26, 2014 at 10:32:42 AM

Latest Report: Oct 26, 2014 at 9:50 AM


Visibility: 3 mi

Pressure: 30.30 "Hg

Humidity: 94%

Dew point: 52 °F

Location of Homburg (Saar)Location

Historic Weather in Homburg (Saar) — Graph

°F

Homburg (Saar) temperature yesterday

Maximum temperature yesterday: 55 °F (at 1:50 PM)
Minimum temperature yesterday: 46 °F (at 12:20 AM)
Average temperature yesterday: 52 °F

Past Weeks' High & Low Weather Summary

 TemperatureHumidityPressure
High72 °F (Oct 18, 3:50 PM)100% (Oct 11, 10:20 AM)30.30 "Hg (Oct 11, 10:20 AM)
Low34 °F (Oct 24, 7:50 AM)59% (Oct 24, 4:20 PM)29.62 "Hg (Oct 21, 5:50 PM)
Average55 °F88%29.99 "Hg
* Reported Oct 11 10:20 AM — Oct 26 9:20 AM, Homburg (Saar), Weather by CustomWeather, © 2014

Note: Actual official high and low records may vary slightly from our data, if they occured in-between our weather recording intervals... More about our weather records

Advertising

Homburg (Saar) weather history for previous 24 hours

 ConditionsComfort  
Time TempWeatherWind HumidityBarometerVisibility
9:20 AM
Oct 26
54 °FOvercast.1 mph94%30.30 "Hg4 mi
8:50 AM54 °FBroken clouds.2 mph94%30.30 "Hg4 mi
7:50 AM50 °FFog.2 mph100%30.30 "Hg2 mi
7:20 AM50 °FFog.No wind100%30.27 "Hg3 mi
3:20 AM52 °FPassing clouds.2 mph94%30.24 "HgN/A
1:20 AM52 °FOvercast.1 mph94%30.24 "HgN/A
12:50 AM52 °FPassing clouds.2 mph94%30.24 "HgN/A
12:20 AM52 °FPassing clouds.1 mph94%30.24 "HgN/A
8:50 PM
Oct 25
52 °FPartly cloudy.No wind94%30.18 "HgN/A
8:20 PM54 °FPartly sunny.3 mph82%30.18 "HgN/A
7:50 PM54 °FPartly sunny.5 mph88%30.18 "HgN/A
7:20 PM54 °FPartly sunny.5 mph88%30.18 "HgN/A
6:50 PM54 °FPartly sunny.3 mph88%30.18 "HgN/A
6:20 PM54 °FPartly sunny.5 mph88%30.15 "HgN/A
5:50 PM54 °FBroken clouds.3 mph88%30.15 "HgN/A
5:20 PM55 °FBroken clouds.3 mph82%30.15 "HgN/A
4:50 PM55 °FBroken clouds.3 mph82%30.15 "HgN/A
4:20 PM55 °FPassing clouds.5 mph77%30.15 "HgN/A
3:50 PM55 °FPartly sunny.5 mph82%30.15 "HgN/A
3:20 PM55 °FPartly sunny.5 mph77%30.15 "HgN/A
2:50 PM55 °FPartly sunny.5 mph77%30.15 "HgN/A
2:20 PM55 °FOvercast.7 mph77%30.15 "HgN/A
1:50 PM55 °FMostly cloudy.7 mph77%30.12 "HgN/A
1:20 PM54 °FPartly sunny.5 mph82%30.15 "HgN/A
12:50 PM54 °FOvercast.3 mph82%30.15 "HgN/A
12:20 PM52 °FOvercast.5 mph88%30.15 "HgN/A
11:50 AM52 °FPartly sunny.6 mph82%30.15 "HgN/A
11:20 AM52 °FPartly sunny.5 mph82%30.12 "HgN/A
10:50 AM50 °FPartly sunny.5 mph88%30.12 "HgN/A
10:20 AM48 °FBroken clouds.6 mph94%30.12 "HgN/A
Weather by CustomWeather, © 2014

See weather overviewHow to use our weather pages